When you browse on this site, cookies collect data to enhance your experience and personalize the content and advertising you see.
Visit our Privacy Policy to learn more. By continuing to use the site, you agree to this use of cookies and data.
  • în România
  • Lista ţărilor
  • Pe 7 zile
  • Temperatura apei
  • Hartă satelitară
  • Meteo pe hartă
  • Widget-uri
  • user-avatar
    Intrare

    Meteo pe oră la Serchhip

    Astăzi, 25 Aprilie, Joi

    Timp Temperatura Precipitaţii Vânt Presiune Umiditate
    00:00 +21°C° 0 mm 1 m/s 681 mmHg 61%
    01:00 +21°C° 0 mm 1 m/s 681 mmHg 62%
    02:00 +20°C° 0 mm 1 m/s 681 mmHg 63%
    03:00 +20°C° 0 mm 1 m/s 680 mmHg 64%
    04:00 +20°C° 0 mm 1 m/s 681 mmHg 64%
    05:00 +20°C° 0 mm 1 m/s 681 mmHg 64%
    06:00 +20°C° 0 mm 1 m/s 681 mmHg 64%
    07:00 +24°C° 0 mm 1 m/s 682 mmHg 53%
    08:00 +27°C° 0 mm 0 m/s 683 mmHg 41%
    09:00 +31°C° 0 mm 0 m/s 684 mmHg 29%
    10:00 +34°C° 0 mm 1 m/s 684 mmHg 26%
    11:00 +35°C° 0 mm 1 m/s 684 mmHg 23%
    12:00 +36°C° 0 mm 1 m/s 684 mmHg 20%
    13:00 +37°C° 0 mm 2 m/s 683 mmHg 21%
    14:00 +37°C° 0 mm 2 m/s 682 mmHg 21%
    15:00 +37°C° 0 mm 2 m/s 681 mmHg 22%
    16:00 +35°C° 0 mm 2 m/s 681 mmHg 27%
    17:00 +31°C° 0 mm 1 m/s 681 mmHg 32%
    18:00 +29°C° 0 mm 1 m/s 680 mmHg 36%
    19:00 +28°C° 0 mm 1 m/s 680 mmHg 42%
    20:00 +24°C° 0 mm 0 m/s 681 mmHg 47%
    21:00 +22°C° 0 mm 0 m/s 681 mmHg 52%
    22:00 +21°C° 0 mm 0 m/s 681 mmHg 54%
    23:00 +21°C° 0 mm 0 m/s 681 mmHg 56%

    Mâine, 26 Aprilie, Vineri

    Timp Temperatura Precipitaţii Vânt Presiune Umiditate
    00:00 +20°C° 0 mm 0 m/s 681 mmHg 58%
    01:00 +20°C° 0 mm 0 m/s 680 mmHg 59%
    02:00 +19°C° 0 mm 0 m/s 680 mmHg 61%
    03:00 +19°C° 0 mm 0 m/s 680 mmHg 62%
    04:00 +19°C° 0 mm 0 m/s 680 mmHg 62%
    05:00 +21°C° 0 mm 1 m/s 680 mmHg 63%
    06:00 +21°C° 0 mm 1 m/s 680 mmHg 63%
    07:00 +23°C° 0 mm 0 m/s 681 mmHg 53%
    08:00 +28°C° 0 mm 0 m/s 682 mmHg 42%
    09:00 +32°C° 0 mm 0 m/s 683 mmHg 31%
    10:00 +35°C° 0 mm 1 m/s 683 mmHg 28%
    11:00 +36°C° 0 mm 1 m/s 683 mmHg 25%
    12:00 +37°C° 0 mm 1 m/s 683 mmHg 22%
    13:00 +36°C° 0 mm 1 m/s 682 mmHg 25%
    14:00 +35°C° 0 mm 1 m/s 681 mmHg 27%
    15:00 +34°C° 0 mm 1 m/s 680 mmHg 29%
    16:00 +30°C° 0 mm 0 m/s 680 mmHg 32%
    17:00 +28°C° 0 mm 0 m/s 680 mmHg 36%
    18:00 +26°C° 0 mm 0 m/s 679 mmHg 40%
    19:00 +25°C° 0 mm 0 m/s 680 mmHg 44%
    20:00 +24°C° 0 mm 0 m/s 681 mmHg 48%
    21:00 +23°C° 0 mm 0 m/s 681 mmHg 52%
    22:00 +22°C° 0 mm 0 m/s 681 mmHg 56%
    23:00 +21°C° 0 mm 0 m/s 681 mmHg 61%

    Poimâine, 27 Aprilie, Sâmbătă

    Timp Temperatura Precipitaţii Vânt Presiune Umiditate
    00:00 +22°C° 0 mm 1 m/s 681 mmHg 66%
    01:00 +22°C° 0 mm 1 m/s 680 mmHg 68%
    02:00 +22°C° 0 mm 1 m/s 680 mmHg 69%
    03:00 +19°C° 0 mm 0 m/s 679 mmHg 71%
    04:00 +21°C° 0 mm 1 m/s 680 mmHg 71%
    05:00 +21°C° 0 mm 1 m/s 680 mmHg 71%
    06:00 +21°C° 0 mm 1 m/s 680 mmHg 71%
    07:00 +25°C° 0 mm 1 m/s 681 mmHg 59%
    08:00 +29°C° 0 mm 1 m/s 682 mmHg 48%
    09:00 +32°C° 0 mm 1 m/s 683 mmHg 36%
    10:00 +33°C° 0 mm 1 m/s 683 mmHg 33%
    11:00 +35°C° 0 mm 2 m/s 683 mmHg 31%
    12:00 +36°C° 0 mm 2 m/s 682 mmHg 28%
    13:00 +36°C° 0 mm 2 m/s 681 mmHg 30%
    14:00 +35°C° 0 mm 2 m/s 681 mmHg 32%
    15:00 +34°C° 0 mm 2 m/s 680 mmHg 34%
    16:00 +31°C° 0.4 mm 2 m/s 680 mmHg 44%
    17:00 +29°C° 0.4 mm 1 m/s 679 mmHg 54%
    18:00 +26°C° 0.4 mm 1 m/s 679 mmHg 64%
    19:00 +25°C° 0.7 mm 1 m/s 679 mmHg 70%
    20:00 +22°C° 0.7 mm 0 m/s 680 mmHg 75%
    21:00 +20°C° 0.7 mm 0 m/s 680 mmHg 81%
    22:00 +20°C° 0 mm 0 m/s 680 mmHg 82%
    23:00 +21°C° 0 mm 1 m/s 680 mmHg 84%

    28 Aprilie, Duminică

    Timp Temperatura Precipitaţii Vânt Presiune Umiditate
    00:00 +21°C° 0 mm 1 m/s 680 mmHg 85%
    01:00 +20°C° 0 mm 1 m/s 679 mmHg 86%
    02:00 +20°C° 0 mm 1 m/s 679 mmHg 86%
    03:00 +20°C° 0 mm 1 m/s 679 mmHg 87%
    04:00 +18°C° 0 mm 0 m/s 679 mmHg 85%
    05:00 +18°C° 0 mm 0 m/s 679 mmHg 84%
    06:00 +18°C° 0 mm 0 m/s 680 mmHg 83%
    07:00 +21°C° 0 mm 0 m/s 681 mmHg 69%
    08:00 +26°C° 0 mm 1 m/s 682 mmHg 56%
    09:00 +30°C° 0 mm 1 m/s 683 mmHg 42%
    10:00 +31°C° 0 mm 2 m/s 683 mmHg 38%
    11:00 +32°C° 0 mm 2 m/s 682 mmHg 34%
    12:00 +34°C° 0 mm 2 m/s 682 mmHg 31%
    13:00 +35°C° 0 mm 2 m/s 682 mmHg 32%
    14:00 +35°C° 0 mm 2 m/s 681 mmHg 33%
    15:00 +35°C° 0 mm 2 m/s 680 mmHg 34%
    16:00 +32°C° 0 mm 2 m/s 680 mmHg 40%
    17:00 +30°C° 0 mm 2 m/s 680 mmHg 46%
    18:00 +29°C° 0 mm 1 m/s 680 mmHg 52%
    19:00 +27°C° 0 mm 1 m/s 680 mmHg 59%
    20:00 +25°C° 0 mm 1 m/s 680 mmHg 66%
    21:00 +23°C° 0 mm 1 m/s 681 mmHg 74%
    22:00 +23°C° 0 mm 1 m/s 680 mmHg 79%
    23:00 +22°C° 0 mm 1 m/s 680 mmHg 84%

    29 Aprilie, Luni

    Timp Temperatura Precipitaţii Vânt Presiune Umiditate
    00:00 +21°C° 0 mm 1 m/s 680 mmHg 89%
    01:00 +19°C° 0.1 mm 0 m/s 680 mmHg 91%
    02:00 +18°C° 0.1 mm 0 m/s 679 mmHg 93%
    03:00 +18°C° 0.1 mm 0 m/s 679 mmHg 96%
    04:00 +18°C° 1.2 mm 0 m/s 680 mmHg 95%
    05:00 +18°C° 1.2 mm 0 m/s 680 mmHg 95%
    06:00 +18°C° 1.2 mm 0 m/s 680 mmHg 94%
    07:00 +23°C° 0.2 mm 1 m/s 681 mmHg 85%
    08:00 +25°C° 0.2 mm 1 m/s 682 mmHg 75%
    09:00 +27°C° 0.2 mm 1 m/s 683 mmHg 65%
    10:00 +29°C° 0.1 mm 2 m/s 683 mmHg 58%
    11:00 +31°C° 0.1 mm 2 m/s 683 mmHg 51%
    12:00 +33°C° 0.1 mm 3 m/s 683 mmHg 44%
    13:00 +32°C° 0.7 mm 2 m/s 682 mmHg 49%
    14:00 +31°C° 0.7 mm 2 m/s 681 mmHg 54%
    15:00 +30°C° 0.7 mm 1 m/s 680 mmHg 59%
    16:00 +29°C° 0.1 mm 1 m/s 680 mmHg 61%
    17:00 +28°C° 0.1 mm 1 m/s 680 mmHg 63%
    18:00 +28°C° 0.1 mm 1 m/s 680 mmHg 65%
    19:00 +26°C° 0.1 mm 1 m/s 680 mmHg 74%
    20:00 +24°C° 0.1 mm 1 m/s 680 mmHg 84%
    21:00 +20°C° 0.1 mm 0 m/s 681 mmHg 93%
    22:00 +22°C° 0.3 mm 1 m/s 681 mmHg 94%
    23:00 +22°C° 0.3 mm 1 m/s 681 mmHg 95%

    30 Aprilie, Marţi

    Timp Temperatura Precipitaţii Vânt Presiune Umiditate
    00:00 +22°C° 0.3 mm 1 m/s 680 mmHg 97%
    01:00 +22°C° 0.3 mm 1 m/s 680 mmHg 97%
    02:00 +20°C° 0.3 mm 0 m/s 680 mmHg 98%
    03:00 +21°C° 0.3 mm 0 m/s 680 mmHg 98%
    04:00 +22°C° 0.2 mm 1 m/s 680 mmHg 98%
    05:00 +22°C° 0.2 mm 1 m/s 681 mmHg 98%
    06:00 +22°C° 0.2 mm 1 m/s 681 mmHg 97%
    07:00 +24°C° 0.1 mm 1 m/s 681 mmHg 86%
    08:00 +26°C° 0.1 mm 1 m/s 682 mmHg 75%
    09:00 +28°C° 0.1 mm 2 m/s 683 mmHg 64%
    10:00 +30°C° 0 mm 2 m/s 682 mmHg 56%
    11:00 +32°C° 0 mm 2 m/s 682 mmHg 48%
    12:00 +34°C° 0 mm 3 m/s 682 mmHg 41%
    13:00 +35°C° 0 mm 3 m/s 681 mmHg 39%
    14:00 +35°C° 0 mm 3 m/s 681 mmHg 37%
    15:00 +35°C° 0 mm 3 m/s 680 mmHg 36%
    16:00 +33°C° 0 mm 3 m/s 680 mmHg 43%
    17:00 +30°C° 0 mm 2 m/s 679 mmHg 50%
    18:00 +28°C° 0 mm 1 m/s 679 mmHg 58%
    19:00 +26°C° 0 mm 1 m/s 679 mmHg 68%
    20:00 +25°C° 0 mm 1 m/s 680 mmHg 77%
    21:00 +23°C° 0 mm 1 m/s 680 mmHg 87%
    22:00 +23°C° 0 mm 1 m/s 680 mmHg 91%
    23:00 +22°C° 0 mm 1 m/s 680 mmHg 94%
    Arată mai mult